Hourly Data Report for June 17, 2011

HALIFAX STANFIELD INT'L A
NOVA SCOTIA

44°52'48.060" N
63°30'00.050" W
145.40 m
8202250
71395
YHZ

Download Data

Hourly Data (June 2011)
Hourly Data Report for June 17, 2011
TIME
LST
Temp Definition
°C
Dew Point Definition
°C
Rel Hum Definition
%
Precip. Amount Definition
mm

Wind Dir Definition
10's deg

Wind Spd Definition
km/h
Visibility Definition
km
Stn Press Definition
kPa
Hmdx Definition


Wind Chill Definition


Weather Definition


00:00 6.5 5.6 94     0 24.1 99.65     Mainly Clear
01:00 6.5 5.8 95     0 24.1 99.67     Clear
02:00 6.3 5.8 97     0 24.1 99.68     Clear
03:00 6.4 6.0 97   36 4 24.1 99.74     Clear
04:00 6.7 6.1 96     0 11.3 99.75     Clear
05:00 6.3 5.8 97   11 4 11.3 99.81     Mainly Clear
06:00 6.2 5.6 96   14 9 0.4 99.85     Fog
07:00 7.4 6.9 97   14 11 0.4 99.87     Fog
08:00 9.9 9.1 95   17 11 24.1 99.90     Mostly Cloudy
09:00 13.8 10.4 80   16 17 24.1 99.89     Mostly Cloudy
10:00 16.7 11.0 69   18 15 24.1 99.91     Mostly Cloudy
11:00 17.3 11.2 67   20 15 24.1 99.92     Mostly Cloudy
12:00 17.5 11.2 67   15 20 24.1 99.90     Mostly Cloudy
13:00 17.5 10.1 62   18 17 24.1 99.89     Cloudy
14:00 17.9 10.8 63   17 19 24.1 99.88     Mostly Cloudy
15:00 17.3 11.3 68   16 24 24.1 99.89     Mostly Cloudy
16:00 17.1 11.7 71   15 19 24.1 99.88     Mostly Cloudy
17:00 15.5 11.3 76   16 24 24.1 99.87     Mostly Cloudy
18:00 12.8 11.0 89   14 11 24.1 99.90     Cloudy
19:00 11.8 11.0 95   13 11 2.0 99.93     Fog
20:00 11.4 11.0 97   16 9 0.4 99.97     Fog
21:00 11.2 10.8 97   14 6 0.6 100.01     Fog
22:00 10.8 10.5 98   17 13 0.6 100.06     Fog
23:00 10.5 10.1 97   17 9 1.6 100.07     Fog

Notes on Data Quality.

Legend

  • E = Estimated
  • M = Missing
  • NA = Not Available*
  • [empty] = Indicates an unobserved value
Date modified: